Location: Casilda
(33.0440°S, 61.1680°W)
Time: 19:33:27
(UTC-03:00)

ISS - Pass Details

Date: 26 November 2023
Orbit: 415 x 417 km, 51.6° (Epoch: 04 December)

Event Time Altitude Azimuth Distance (km) Brightness Sun altitude
Exits shadow 04:53:40 - 249° (WSW) 1,953 -0.7 -11.0°
Reaches altitude 10° 04:56:16 10° 213° (SSW) 1,517 -0.9 -10.6°
Maximum altitude 04:56:39 10° 207° (SSW) 1,509 -0.8 -10.5°
Drops below altitude 10° 04:57:02 10° 200° (SSW) 1,518 -0.8 -10.5°
Sets 05:01:06 0° 153° (SSE) 2,389 1.2 -9.7°
